Find Starlink 36472

NORAD ID: 67346 Int'l Des: 2026-003 Owner: SPXS Country: US Constellation: starlink operational
LEOCIRCULAR

現在のビュー

3D地球を読み込み中...

About Starlink 36472

Starlink 36472 (NORAD 67346) is a starlink constellation satellite (v2 mini) launched Jan 9, 2026 by SPXS of US. It operates in LEO, CIRCULAR orbit with a mass of 575.00 kg.

Starlink 36472について

説明を読み込み中...

次回通過

Passes for default location (London). Set your location on the main map for personalized predictions.

高度履歴

Loading altitude history...

軌道要素

1 67346U 26003N 26194.44510053 .00008462 00000-0 31660-3 0 9990
2 67346 43.0016 237.1253 0001768 272.5099 87.5550 15.27586092 28040
Epoch: Jul 13, 2026 • Age: 16 hours

現在のステータス

高度 486.3 km
遠地点 / 近地点 N/A
速度 7.63 km/s
衛星直下点 38.98°N, 38.97°W
打ち上げ日 Jan 9, 2026
運用期間 0.5 years
タイプ internet

技術仕様

分類 Payload
質量 575.00 kg
乾燥質量 530.00 kg
総質量 575.00 kg
長さ 0.30 m
直径 4.10 m
スパン 29.00 m
形状 Box + pan
製造者 SPXS
バスタイプ Starlink V2MO
フェーズステータス In Orbit
所有者/国 SPXS/US

Most Searched